When you browse on this site, cookies collect data to enhance your experience and personalize the content and advertising you see.
Visit our Privacy Policy to learn more. By continuing to use the site, you agree to this use of cookies and data.
  • In Hungary
  • List of Countries
  • For 7 days
  • Water Temperature
  • Weather Map
  • News
  • Weather Widgets
  • user-avatar
    Login

    Hourly Weather Baltika

    Today, 15 October, Tuesday

    Time Temperature Precipitation Wind Pressure Humidity
    00:00 +5°C° 0.1 mm 4 mps 740 mmHg 88%
    01:00 +5°C° 0.1 mm 4 mps 741 mmHg 88%
    02:00 +5°C° 0 mm 4 mps 741 mmHg 90%
    03:00 +5°C° 0 mm 4 mps 741 mmHg 91%
    04:00 +5°C° 0 mm 4 mps 741 mmHg 92%
    05:00 +5°C° 0 mm 4 mps 740 mmHg 92%
    06:00 +4°C° 0 mm 4 mps 740 mmHg 92%
    07:00 +4°C° 0 mm 4 mps 740 mmHg 92%
    08:00 +5°C° 0.5 mm 4 mps 739 mmHg 91%
    09:00 +5°C° 0.5 mm 4 mps 739 mmHg 89%
    10:00 +5°C° 0.5 mm 4 mps 738 mmHg 88%
    11:00 +5°C° 0.5 mm 3 mps 737 mmHg 90%
    12:00 +6°C° 0.5 mm 2 mps 737 mmHg 92%
    13:00 +6°C° 0.5 mm 2 mps 736 mmHg 94%
    14:00 +6°C° 0.2 mm 2 mps 736 mmHg 93%
    15:00 +6°C° 0.2 mm 2 mps 736 mmHg 93%
    16:00 +6°C° 0.2 mm 2 mps 735 mmHg 93%
    17:00 +6°C° 0 mm 2 mps 736 mmHg 92%
    18:00 +6°C° 0 mm 2 mps 736 mmHg 92%
    19:00 +5°C° 0 mm 2 mps 737 mmHg 92%
    20:00 +5°C° 0.1 mm 2 mps 737 mmHg 91%
    21:00 +4°C° 0.1 mm 3 mps 737 mmHg 90%
    22:00 +4°C° 0.1 mm 3 mps 738 mmHg 89%
    23:00 +4°C° 0 mm 3 mps 738 mmHg 88%

    Tomorrow, 16 October, Wednesday

    Time Temperature Precipitation Wind Pressure Humidity
    00:00 +4°C° 0 mm 3 mps 739 mmHg 88%
    01:00 +3°C° 0 mm 3 mps 740 mmHg 87%
    02:00 +3°C° 0 mm 3 mps 740 mmHg 88%
    03:00 +2°C° 0 mm 3 mps 741 mmHg 90%
    04:00 +1°C° 0 mm 3 mps 742 mmHg 91%
    05:00 +1°C° 0 mm 3 mps 742 mmHg 91%
    06:00 0°C° 0 mm 4 mps 742 mmHg 90%
    07:00 0°C° 0 mm 4 mps 743 mmHg 90%
    08:00 0°C° 0 mm 5 mps 743 mmHg 86%
    09:00 +1°C° 0 mm 5 mps 744 mmHg 81%
    10:00 +1°C° 0 mm 6 mps 744 mmHg 77%
    11:00 +1°C° 0 mm 5 mps 745 mmHg 76%
    12:00 +1°C° 0 mm 5 mps 745 mmHg 76%
    13:00 +1°C° 0 mm 5 mps 746 mmHg 76%
    14:00 0°C° 0 mm 5 mps 746 mmHg 75%
    15:00 0°C° 0 mm 5 mps 747 mmHg 73%
    16:00 0°C° 0 mm 5 mps 747 mmHg 72%
    17:00 0°C° 0 mm 5 mps 748 mmHg 73%
    18:00 0°C° 0 mm 4 mps 748 mmHg 74%
    19:00 -1°C° 0 mm 4 mps 749 mmHg 75%
    20:00 -1°C° 0 mm 4 mps 749 mmHg 76%
    21:00 -1°C° 0 mm 4 mps 750 mmHg 76%
    22:00 -1°C° 0 mm 4 mps 750 mmHg 77%
    23:00 0°C° 0 mm 3 mps 750 mmHg 78%

    Day after tomorrow, 17 October, Thursday

    Time Temperature Precipitation Wind Pressure Humidity
    00:00 0°C° 0 mm 3 mps 751 mmHg 78%
    01:00 0°C° 0 mm 3 mps 751 mmHg 79%
    02:00 0°C° 0 mm 3 mps 751 mmHg 81%
    03:00 -1°C° 0 mm 2 mps 752 mmHg 82%
    04:00 -1°C° 0 mm 2 mps 752 mmHg 84%
    05:00 -1°C° 0 mm 2 mps 752 mmHg 85%
    06:00 -2°C° 0 mm 2 mps 752 mmHg 86%
    07:00 0°C° 0 mm 1 mps 752 mmHg 87%
    08:00 -1°C° 0 mm 2 mps 752 mmHg 82%
    09:00 +1°C° 0 mm 2 mps 752 mmHg 77%
    10:00 +1°C° 0 mm 3 mps 752 mmHg 72%
    11:00 +1°C° 0 mm 3 mps 752 mmHg 71%
    12:00 +1°C° 0 mm 3 mps 751 mmHg 70%
    13:00 +2°C° 0 mm 3 mps 751 mmHg 69%
    14:00 +1°C° 0.2 mm 4 mps 751 mmHg 75%
    15:00 +1°C° 0.2 mm 4 mps 750 mmHg 81%
    16:00 0°C° 0.2 mm 4 mps 750 mmHg 88%
    17:00 0°C° 0.4 mm 5 mps 749 mmHg 89%
    18:00 -1°C° 0.4 mm 6 mps 748 mmHg 90%
    19:00 -1°C° 0.4 mm 7 mps 748 mmHg 91%
    20:00 0°C° 0 mm 7 mps 747 mmHg 88%
    21:00 0°C° 0 mm 7 mps 746 mmHg 85%
    22:00 0°C° 0 mm 7 mps 746 mmHg 83%
    23:00 +2°C° 0 mm 7 mps 745 mmHg 79%

    18 October, Friday

    Time Temperature Precipitation Wind Pressure Humidity
    00:00 +2°C° 0 mm 7 mps 744 mmHg 75%
    01:00 +1°C° 0 mm 8 mps 743 mmHg 72%
    02:00 +2°C° 1 mm 7 mps 743 mmHg 76%
    03:00 +2°C° 1 mm 7 mps 742 mmHg 79%
    04:00 +2°C° 1 mm 6 mps 741 mmHg 83%
    05:00 +2°C° 1.7 mm 6 mps 741 mmHg 86%
    06:00 +2°C° 1.7 mm 6 mps 741 mmHg 88%
    07:00 +2°C° 1.7 mm 6 mps 740 mmHg 90%
    08:00 +2°C° 1.2 mm 6 mps 740 mmHg 91%
    09:00 +2°C° 1.2 mm 6 mps 740 mmHg 91%
    10:00 +3°C° 1.2 mm 6 mps 740 mmHg 91%
    11:00 +3°C° 0.1 mm 6 mps 741 mmHg 85%
    12:00 +2°C° 0.1 mm 6 mps 742 mmHg 78%
    13:00 +2°C° 0.1 mm 6 mps 742 mmHg 71%
    14:00 +2°C° 0 mm 6 mps 743 mmHg 72%
    15:00 +1°C° 0 mm 6 mps 744 mmHg 72%
    16:00 +1°C° 0 mm 5 mps 745 mmHg 73%
    17:00 0°C° 0 mm 5 mps 745 mmHg 75%
    18:00 0°C° 0 mm 4 mps 746 mmHg 77%
    19:00 0°C° 0 mm 4 mps 747 mmHg 79%
    20:00 -1°C° 0 mm 4 mps 747 mmHg 81%
    21:00 -1°C° 0 mm 3 mps 748 mmHg 82%
    22:00 -1°C° 0 mm 3 mps 749 mmHg 84%
    23:00 -1°C° 0 mm 3 mps 749 mmHg 84%

    19 October, Saturday

    Time Temperature Precipitation Wind Pressure Humidity
    00:00 -2°C° 0 mm 3 mps 750 mmHg 84%
    01:00 -2°C° 0 mm 3 mps 750 mmHg 84%
    02:00 -2°C° 0 mm 3 mps 751 mmHg 83%
    03:00 -2°C° 0 mm 3 mps 751 mmHg 83%
    04:00 -4°C° 0 mm 3 mps 752 mmHg 82%
    05:00 -4°C° 0 mm 3 mps 752 mmHg 81%
    06:00 -4°C° 0 mm 3 mps 753 mmHg 81%
    07:00 -4°C° 0 mm 3 mps 753 mmHg 80%
    08:00 -2°C° 0 mm 3 mps 754 mmHg 75%
    09:00 -2°C° 0 mm 3 mps 754 mmHg 70%
    10:00 -1°C° 0 mm 3 mps 754 mmHg 65%
    11:00 +1°C° 0 mm 2 mps 755 mmHg 61%
    12:00 +2°C° 0 mm 2 mps 755 mmHg 57%
    13:00 +2°C° 0 mm 2 mps 755 mmHg 52%
    14:00 +2°C° 0 mm 2 mps 755 mmHg 55%
    15:00 +2°C° 0 mm 2 mps 755 mmHg 57%
    16:00 +3°C° 0 mm 1 mps 755 mmHg 60%
    17:00 +2°C° 0 mm 1 mps 755 mmHg 64%
    18:00 +1°C° 0 mm 1 mps 755 mmHg 67%
    19:00 0°C° 0 mm 1 mps 756 mmHg 71%
    20:00 0°C° 0 mm 1 mps 756 mmHg 72%
    21:00 0°C° 0 mm 1 mps 756 mmHg 72%
    22:00 0°C° 0 mm 1 mps 756 mmHg 73%
    23:00 0°C° 0 mm 1 mps 756 mmHg 74%

    20 October, Sunday

    Time Temperature Precipitation Wind Pressure Humidity
    00:00 0°C° 0 mm 1 mps 756 mmHg 75%
    01:00 -2°C° 0 mm 2 mps 756 mmHg 76%
    02:00 -2°C° 0 mm 2 mps 756 mmHg 76%
    03:00 -2°C° 0 mm 2 mps 756 mmHg 76%
    04:00 -2°C° 0 mm 3 mps 756 mmHg 76%
    05:00 -2°C° 0 mm 3 mps 756 mmHg 74%
    06:00 -2°C° 0 mm 3 mps 756 mmHg 72%
    07:00 -2°C° 0 mm 3 mps 756 mmHg 71%
    08:00 -2°C° 0 mm 3 mps 756 mmHg 67%
    09:00 -1°C° 0 mm 3 mps 756 mmHg 63%
    10:00 -1°C° 0 mm 4 mps 756 mmHg 59%
    11:00 0°C° 0 mm 4 mps 756 mmHg 58%
    12:00 0°C° 0 mm 4 mps 756 mmHg 57%
    13:00 +1°C° 0 mm 4 mps 755 mmHg 56%
    14:00 +2°C° 0 mm 3 mps 755 mmHg 59%
    15:00 +1°C° 0 mm 3 mps 755 mmHg 62%
    16:00 +1°C° 0 mm 3 mps 755 mmHg 65%
    17:00 +1°C° 0 mm 2 mps 755 mmHg 68%
    18:00 +1°C° 0 mm 2 mps 755 mmHg 72%
    19:00 -1°C° 0 mm 2 mps 755 mmHg 75%
    20:00 -1°C° 0 mm 2 mps 755 mmHg 76%
    21:00 -2°C° 0 mm 2 mps 755 mmHg 77%
    22:00 -2°C° 0 mm 2 mps 755 mmHg 78%
    23:00 -2°C° 0 mm 2 mps 755 mmHg 78%
    Show more